Other Public Products
Issued by NWS Charleston, SC

Current Version | Previous Version | Graphics & Text | Print | Product List | Glossary On
Versions: 1 2 3 4 5 6 7 8 9 10 11 12 13 14 15 16 17 18 19 20 21 22 23 24 25 26 27 28 29 30 31 32 33 34 35 36 37 38 39 40 41 42 43 44 45 46 47 48 49 50
657
FPUS82 KCHS 222243
OPUCHS

TEST...KCHS/KSAV Gateway Observations...TEST
National Weather Service Charleston SC
600 PM EDT FRI SEP 22 2017

NOTE: "fair" indicates few or no clouds below 12,000 feet with no
significant weather and/or obstructions to visibility.

SCZ050-WAZ558-NCZ071-TXZ119-213-PAZ071-DCZ001-FLZ074-172-MI076-
NYZ176-178-MAZ016-IL014-TNZ027-NJZ106-GAZ044-MD014-222300-

...Gateway Observations for Charleston International...

CITY           SKY/WX    TMP DP  RH WIND       PRES   REMARKS
Chas Airport   PTSUNNY   81  70  69 SE7       29.98S
Seattle        MOSUNNY   65  47  52 CALM      30.04F
Charlotte      MOSUNNY   87  64  46 N5        30.01F
Dallas DFW     MOSUNNY   94  64  37 SE14      29.88F HX  95
Dallas Love    MOSUNNY   94  64  37 S17       29.89F HX  95
Philladelphia  PTSUNNY   81  56  42 N8        29.95S
Wash National  CLOUDY    81  66  60 NW10      29.99S
Baltimore      CLOUDY    77  65  66 CALM      29.98F
Miami          CLOUDY    82  81  96 NE6       29.81F HX  95
Detroit        MOSUNNY   85  69  58 SE9       30.08F
Newark         MOCLDY    82  57  42 N15       29.94R
Laguardia      PTCLDY    79  58  48 N14       29.93S
J F K          MOCLDY    80  57  45 N18       29.93S
Boston Logan   DRIZZLE   60  58  92 N23G35    29.99F FOG
Ft. Lauderdale CLOUDY    80  76  87 NE7       29.81F
Chicago O`Hare MOSUNNY   93  63  36 S9        30.01S HX  94
Chicago Midway MOSUNNY   94  64  37 S10       30.02R HX  95
Houston Bush   NOT AVBL
Houston Hobby  NOT AVBL
Nashville      MOSUNNY   90  66  45 N6        30.01S HX  92
Atlanta        MOSUNNY   84  65  52 E8        30.00S

$$

GAZ044-118-TXZ119-213-NCZ071-DCZ001-MDZ014-506-PAZ021-071-NJZ106-
NYZ176-178-MAZ106-OHZ011-021-055-MIZ076-KYZ091-ILZ014-INZ047-
MNZ060-ONZ431-222300-

...Gateway Observations for Savannah International...

CITY           SKY/WX    TMP DP  RH WIND       PRES   REMARKS
Savannah Arpt  MOSUNNY   85  69  58 SE10      29.97S
Atlanta        MOSUNNY   84  65  52 E8        30.00S
Charlotte      MOSUNNY   87  64  46 N5        30.01F
Dallas DFW     MOSUNNY   94  64  37 SE14      29.88F HX  95
Houston Bush   NOT AVBL
Wash National  CLOUDY    81  66  60 NW10      29.99S
Wash Dulles    PTSUNNY   79  65  62 NW6       30.00F
Baltimore      CLOUDY    77  65  66 CALM      29.98F
Philadelphia   PTSUNNY   81  56  42 N8        29.95S
Newark         MOCLDY    82  57  42 N15       29.94R
Laguardia      PTCLDY    79  58  48 N14       29.93S
J F K          MOCLDY    80  57  45 N18       29.93S
Boston         DRIZZLE   60  58  92 N23G35    29.99F FOG
Pittsburg      CLOUDY    86  53  32 N7        30.08S
Akron          PTSUNNY   85  61  44 E7        30.10R
Cleveland      MOSUNNY   85  60  42 NE12      30.10S
Cincinnati     MOSUNNY   87  69  54 E5        30.05S HX  91
Columbus       SUNNY     85  64  47 CALM      30.05S
Detroit        MOSUNNY   85  69  58 SE9       30.08F
Chicago O`Hare MOSUNNY   93  63  36 S9        30.01S HX  94
Minneapolis    MOSUNNY   94  70  45 S20       29.79S HX 100
Indianapolis   PTSUNNY   83  64  52 SE15G23   30.04R THUNDER
Toronto Canada MOSUNNY   77  52  41 SE7       30.09S

$$




USA.gov is the U.S. government's official web portal to all federal, state and local government web resources and services.